SCP
0 0 0 0 0 0 0 0 0 0 0 0 0 0 0 0 0 0 0 0 0 0 0 0 0 0 0 0 0 0 0 0 0 0 0 0 0 0 0 0 0 0 0 0 0 0 0
0 0 0 0 0 0 0 0 0 0 0 0 0 0 0 0 0 0 0 0 0 0 0 0 0 0 0 0 0 0 0 0 0 0 0 0 0 0 0 0 0 0 0 0 0 0 0
0 0 0 0 0 0 0 0 0 0 0 0 0 0 0 0 0 0 0 0 0 0 0 0 0 0 0 0 0 0 0 0 0 0 0 0 0 0 0 0 0 0 0 0 0 0 0
0 0 0 0 0 0 0 0 0 0 0 0 0 0 0 0 0 0 0 0 0 0 0 0 0 0 0 0 0 0 0 0 0 0 0 0 0 0 0 0 0 0 0 0 0 0 0
0 0 0 0 0 0 0 0 0 0 0 0 0 0 0 0 0 0 0 0 0 0 0 0 0 0 0 0 0 0 0 0 0 0 0 0 0 0 0 0 0 0 0 0 0 0 0
0 0 0 0 0 0 0 0 0 0 0 0 0 0 0 0 0 0 0 0 0 0 0 0 0 0 0 0 0 0 0 0 0 0 0 0 0 0 0 0 0 0 0 0 0 0 0
0 0 0 0 0 0 0 0 0 0 0 0 0 0 0 0 0 0 0 0 0 0 0 0 0 0 0 0 0 0 0 0 0 0 0 0 0 0 0 0 0 0 0 0 0 0 0
0 0 0 0 0 0 0 0 0 0 0 0 0 0 0 0 0 0 0 0 0 0 0 0 0 -0 0 0 0 0 0 0 0 0 0 0 0 0 0 0 0 0 0 0 0 0 0
-0 -0 0 0 0 0 0 0 0 0 0 0 0 0 0 0 0 0 0 0 0 0 0 0 0 0 0 0 0 0 0 0 0 0 0 0 0 0 0 0 0 0 0 0 0 0 0
-0 -0 -0 0 0 0 0 0 0 0 0 0 0 0 0 0 0 0 0 0 0 0 0 0 0 0 0 0 0 0 0 0 0 0 0 0 0 0 0 0 0 0 0 0 0 0 0
0 -0 -0 0 0 0 0 0 0 0 0 0 0 0 0 0 0 0 0 0 0 0 0 0 0 0 0 0 0 0 0 0 0 0 0 0 0 0 0 0 0 0 0 0 0 0 0
0 0 -0 -0 -0 -0 0 0 0 0 0 0 0 0 0 0 0 0 0 0 0 0 0 0 0 0 0 0 0 0 0 0 0 0 0 0 0 0 0 0 0 0 0 0 0 0 0
0 0 0 -0 -0 -0 0 0 0 0 0 0 0 0 0 0 0 0 0 0 0 0 0 0 0 0 0 0 0 0 0 0 0 0 0 0 0 0 0 0 0 0 0 0 0 0 0
0 0 0 -0 -0 -0 -0 -0 -0 0 0 0 0 0 0 0 0 0 0 0 0 0 0 0 0 0 0 0 0 0 0 0 0 0 0 0 0 0 0 0 0 0 0 0 0 0 0
0 0 0 0 -0 -0 -0 -0 -0 0 0 0 0 0 0 0 0 1 0 0 0 0 0 0 0 0 0 0 0 0 0 0 0 0 0 0 0 0 0 0 0 0 0 0 0 0 0
0 0 0 0 0 -0 -0 -0 -0 0 0 0 0 0 0 0 0 1 0 0 0 0 0 0 0 0 0 0 0 0 0 0 0 0 0 0 0 0 0 0 0 0 0 0 0 0 0
0 0 0 0 0 -0 0 -0 -0 -0 0 0 0 0 0 0 0 0 0 0 0 0 0 0 0 0 0 0 0 0 0 0 0 0 0 0 0 0 0 0 0 0 0 0 0 0 0
0 0 0 0 0 0 0 -0 -0 -0 -0 0 0 0 0 0 0 0 0 0 0 0 0 0 0 0 0 0 0 0 0 0 0 0 0 0 0 0 0 0 0 0 0 0 0 0 0
0 0 0 0 0 0 0 -0 -0 -0 -0 0 0 0 0 0 0 0 0 0 0 0 0 0 0 0 0 0 0 0 0 0 0 0 0 0 0 0 0 0 0 0 0 0 0 0 0
0 0 0 0 0 0 0 0 -0 -0 -0 -0 0 0 0 0 0 0 0 0 0 0 0 0 0 0 0 0 0 0 0 0 0 0 0 0 0 0 0 0 0 0 0 0 0 0 0
0 0 0 0 0 0 0 0 -0 -0 -0 -0 0 0 0 0 0 0 0 0 0 0 0 0 0 0 0 0 0 0 0 0 0 0 0 0 0 0 0 0 0 0 0 0 0 0 0
0 -0 0 0 0 0 0 0 0 -0 -0 0 0 0 0 0 0 0 0 0 0 0 0 0 0 0 0 0 0 0 0 0 0 0 0 0 0 0 0 0 0 0 0 0 0 0 0
0 0 0 0 0 0 0 0 0 0 0 0 0 0 0 0 0 0 0 0 0 0 0 0 0 0 0 0 0 0 0 0 0 0 0 0 0 0 0 0 0 0 0 0 0 0 0
0 0 0 0 0 0 0 0 0 0 0 0 0 0 0 0 0 0 0 0 0 0 0 0 0 0 0 0 0 0 0 0 0 0 0 0 0 0 0 0 0 0 0 0 0 0 0
0 0 0 0 0 0 0 0 0 0 0 0 0 0 0 0 0 0 0 0 0 0 0 0 0 0 0 0 0 0 0 0 0 0 0 0 0 0 0 0 0 0 0 0 0 0 0
0 0 0 0 0 0 0 0 0 0 0 0 0 0 0 0 0 0 0 0 0 0 0 0 0 0 0 0 0 0 0 0 0 0 0 0 0 0 0 0 0 0 0 0 0 0 0
0 0 0 0 0 0 0 0 0 0 0 0 0 0 0 0 0 0 0 0 0 0 0 0 0 0 0 0 0 0 0 0 0 0 0 0 0 0 0 0 0 0 0 0 0 0 0
0 0 0 0 0 0 0 0 0 0 0 0 0 0 0 0 0 0 0 0 0 0 0 0 0 0 0 0 0 0 0 0 0 0 0 0 0 0 0 0 0 0 0 0 0 0 0
0 0 0 0 0 0 0 0 0 0 0 0 0 0 0 0 0 0 0 0 0 0 0 0 0 0 0 0 0 0 0 0 0 0 0 0 0 0 0 0 0 0 0 0 0 0 0
Wind_Speed_500mb
22 21 17 22 22 22 23 22 26 28 48 36 56 54 59 54 59 57 51 50 49 43 39 35 25 42 46 32 22 10 70 62 44 31 19 20 19 24 11 20 26 6 11 9 14 18 16
14 10 13 23 20 16 24 24 26 32 43 59 45 56 58 47 65 53 50 52 47 45 44 36 28 51 31 14 24 8 61 77 67 42 27 25 21 32 14 26 18 19 20 22 16 16 11
12 10 12 10 16 8 16 25 34 34 39 55 48 61 56 54 61 57 49 48 46 46 41 32 35 43 19 14 28 20 45 75 86 67 26 26 34 17 12 2 14 36 13 12 14 16 7
23 23 16 24 19 17 14 21 30 35 35 51 60 65 59 61 60 59 54 52 49 48 48 48 27 20 7 22 33 25 23 61 59 68 34 44 34 33 8 17 8 14 15 11 9 15 6
27 27 22 29 34 25 25 25 25 31 34 49 76 65 69 67 60 59 58 54 49 50 49 51 37 18 9 19 34 36 35 46 47 49 48 32 31 25 7 10 9 14 12 11 9 14 10
16 14 12 17 25 29 19 27 30 28 35 48 82 64 81 74 69 65 59 53 48 49 45 38 17 12 23 32 35 42 37 45 62 63 41 44 23 11 12 17 27 12 13 14 15 14 3
15 12 11 16 19 25 24 31 30 29 28 43 74 72 93 77 80 75 71 69 51 27 61 26 37 18 10 24 35 46 47 44 47 47 34 41 21 32 31 21 14 19 13 16 12 5 9
16 11 11 17 19 12 19 29 32 25 30 51 72 76 92 80 84 82 83 54 61 24 37 24 21 39 25 39 19 38 51 31 39 33 44 20 37 23 21 19 19 11 26 11 11 12 6
20 10 9 15 22 8 16 21 29 22 32 49 73 80 86 89 87 82 92 41 36 57 20 23 25 57 16 33 19 49 58 40 32 35 43 22 20 22 15 10 13 12 21 11 11 9 5
23 13 8 13 20 6 15 19 28 22 22 38 79 76 108 101 91 91 92 39 55 40 12 19 15 27 17 23 7 45 67 26 19 38 33 19 10 18 18 18 16 10 7 18 24 14 8
22 17 15 11 18 3 7 6 15 20 19 48 73 82 101 108 78 101 98 46 62 28 15 23 15 30 19 19 34 32 52 23 26 20 14 11 13 15 18 18 15 5 17 16 9 8 6
12 13 19 16 12 11 14 21 27 18 23 12 68 80 88 91 61 86 75 51 35 6 12 15 17 17 13 19 15 30 20 11 9 11 12 6 4 3 5 10 12 15 20 15 7 6 2
6 6 10 11 7 16 14 19 19 19 24 16 34 101 100 94 69 93 64 48 10 9 23 19 18 27 31 17 16 28 26 10 13 20 14 6 5 4 3 18 7 13 16 6 3 1 9
8 6 6 8 8 11 17 22 30 24 18 16 22 94 102 77 68 79 70 22 10 23 21 15 24 34 23 27 10 29 28 19 17 15 20 11 6 13 7 9 16 16 15 11 11 8 7
15 10 6 5 14 10 14 20 32 12 14 18 31 101 87 68 88 90 57 30 21 38 17 22 30 35 14 24 16 25 33 39 23 25 14 18 5 6 7 7 13 10 10 5 14 4 8
15 10 10 8 6 15 11 18 25 2 9 20 10 67 71 75 97 86 32 32 14 27 27 33 20 25 33 40 17 29 36 29 27 21 7 14 11 3 3 3 6 7 15 7 2 9 7
20 15 10 10 6 14 17 9 19 9 14 28 8 37 56 75 96 63 33 26 13 9 43 25 14 17 22 27 23 28 36 23 33 13 10 3 11 3 5 10 15 5 6 4 9 8 10
21 22 21 11 12 7 15 11 9 16 13 23 11 6 41 73 23 23 27 37 14 12 5 5 6 7 28 35 29 28 25 13 55 27 16 3 11 8 4 3 6 6 9 11 8 6 3
21 17 14 12 10 11 8 8 2 12 13 16 10 8 24 54 24 30 20 36 9 10 9 6 6 3 3 26 14 16 12 4 27 20 22 14 5 9 6 5 5 5 9 7 9 6 10
22 16 15 12 11 12 9 11 12 4 13 8 6 1 8 8 14 28 32 40 27 7 10 5 9 8 7 19 8 16 7 7 8 11 23 19 8 13 16 11 16 15 22 17 14 7 8
22 20 21 16 11 10 10 10 19 15 14 9 5 6 5 5 5 15 32 29 35 14 2 13 4 8 12 10 11 12 8 5 10 7 9 12 14 12 6 9 12 12 19 18 16 31 16
22 22 20 23 15 12 13 12 13 21 23 14 8 3 6 7 7 17 37 18 38 23 17 10 2 14 11 11 12 19 21 10 13 4 14 2 6 12 3 8 9 7 19 31 38 28 17
16 17 18 18 19 13 13 15 15 23 23 7 5 17 6 10 6 4 9 33 18 21 10 14 14 11 10 8 17 14 18 26 19 20 24 14 10 6 6 13 12 8 26 33 23 22 38
23 20 15 12 15 13 15 13 14 13 31 11 18 19 9 5 4 5 6 4 18 3 6 8 10 9 13 40 43 37 37 27 16 10 18 15 12 6 4 5 7 17 22 28 40 28 37
24 22 19 16 11 9 12 16 17 17 22 19 19 9 4 5 7 5 5 5 15 15 6 7 10 11 32 10 8 9 7 7 9 10 5 8 10 8 14 7 16 18 15 20 18 35 22
11 18 24 22 21 13 9 12 16 20 11 34 23 13 7 10 7 12 11 4 3 6 4 4 8 16 11 4 6 10 10 11 11 3 9 7 16 7 8 12 22 45 13 19 15 27 27
11 9 10 19 23 23 14 11 12 17 17 12 28 20 7 10 11 14 4 13 12 7 4 5 8 5 6 4 5 10 13 5 15 23 13 8 1 21 13 7 16 12 15 43 19 19 24
9 10 11 9 15 20 21 15 13 13 17 8 15 26 14 8 11 14 10 9 11 13 4 10 10 2 5 8 12 7 9 12 6 12 16 17 15 9 5 5 30 16 12 32 15 8 7
19 18 11 11 15 16 15 17 17 15 15 21 11 19 33 11 8 11 13 14 15 16 15 18 8 4 7 4 3 5 4 2 3 8 3 11 10 13 20 15 4 30 5 12 4 10 12
Wind_Direction_500mb
253 267 267 278 288 275 259 264 252 242 232 233 200 200 195 199 204 202 202 200 199 194 195 195 195 199 195 194 216 253 211 199 169 166 206 242 244 214 235 187 178 202 122 82 125 134 108
254 250 260 259 283 283 261 263 260 245 234 226 209 198 194 194 198 197 200 198 194 191 192 199 199 187 161 194 208 175 190 192 183 171 184 231 239 203 307 203 181 164 142 134 131 117 104
267 276 249 275 255 304 277 264 258 249 245 227 226 193 194 186 194 196 197 198 195 195 190 186 183 167 171 179 164 187 196 190 192 193 183 238 236 268 261 135 150 140 115 127 142 156 118
266 260 284 252 249 256 298 287 263 255 252 230 217 195 192 187 192 192 194 198 194 193 186 173 154 153 241 172 163 189 186 188 179 189 210 252 254 260 282 144 134 180 138 141 163 147 116
251 264 271 268 245 256 261 301 290 260 268 222 217 201 189 185 190 185 184 187 185 188 182 178 185 151 224 202 205 191 175 173 169 175 214 238 249 227 186 178 165 217 164 162 151 213 127
285 294 291 299 258 256 278 291 302 286 277 231 212 213 185 182 183 180 175 175 174 168 165 165 190 213 205 211 200 204 202 182 178 183 197 228 219 213 200 206 195 168 173 185 148 186 187
277 294 304 320 284 265 275 283 304 295 277 231 209 215 182 179 177 175 168 157 141 166 172 163 181 216 210 189 195 197 186 176 161 171 198 197 207 209 199 204 232 163 208 145 105 71 154
260 292 322 340 328 262 268 285 292 296 264 207 203 207 184 176 177 176 175 168 161 184 172 182 183 184 140 163 167 184 170 159 188 181 187 175 220 203 196 199 237 258 184 151 50 112 113
251 276 330 343 344 265 293 297 312 302 274 199 200 196 193 175 176 177 179 164 155 153 150 217 229 200 184 169 183 172 176 195 185 188 198 188 189 200 174 166 174 243 175 145 136 129 263
240 260 296 342 353 252 292 317 315 306 272 215 204 200 185 174 173 177 181 170 177 165 146 163 188 181 201 164 168 183 183 203 186 198 199 200 207 182 157 182 178 164 67 128 125 144 198
237 260 279 310 347 242 246 314 333 314 302 206 190 192 177 176 172 180 176 185 174 195 169 146 155 157 187 190 144 183 187 215 198 166 161 181 159 167 172 184 182 154 116 120 134 145 122
233 267 262 263 318 299 262 280 296 320 305 192 195 196 174 178 178 179 171 188 176 217 201 154 145 152 152 207 189 153 176 210 171 121 59 83 299 155 126 55 113 139 97 82 77 113 312
219 310 308 247 300 351 267 299 318 326 284 85 176 177 180 172 172 171 179 155 168 188 141 166 175 162 171 168 154 173 178 191 157 148 160 121 70 24 147 85 123 146 139 118 130 198 210
267 252 279 288 281 330 351 353 306 305 267 7 116 178 175 167 174 166 170 175 189 184 179 148 155 156 176 153 185 185 175 180 223 190 155 154 188 174 184 171 172 189 169 145 168 171 197
265 267 240 214 260 282 316 339 345 251 283 332 146 169 167 166 168 172 166 184 204 169 154 142 137 156 152 180 133 177 186 196 200 209 155 172 86 50 37 5 138 210 220 101 104 35 79
242 261 229 223 280 288 275 325 355 259 317 308 59 150 157 168 169 174 188 192 201 165 122 143 163 169 174 180 161 184 183 204 202 205 70 161 108 332 307 314 77 178 145 86 29 126 214
230 245 255 217 243 292 226 306 351 1 337 327 33 141 155 164 171 179 197 188 156 116 141 171 144 175 169 175 182 185 185 175 195 160 114 63 108 174 158 215 162 146 175 199 150 148 164
231 242 256 248 223 255 295 237 336 5 357 338 358 118 165 161 165 195 199 183 151 145 90 223 117 138 178 175 183 189 185 184 186 144 148 59 106 137 179 43 7 15 178 169 147 220 83
226 226 242 247 233 226 257 243 194 21 102 354 14 68 158 166 180 189 182 193 131 144 162 156 98 109 188 168 167 174 145 269 163 158 161 184 125 98 23 346 28 215 173 218 111 87 193
227 221 230 244 239 222 217 258 165 107 124 121 1 114 55 75 216 179 180 194 182 100 154 139 108 103 127 154 51 167 115 18 29 134 172 135 145 151 182 193 134 187 194 191 173 139 180
217 218 219 222 230 218 210 212 179 155 132 98 14 73 22 151 122 185 191 193 187 161 268 154 109 190 156 137 141 158 113 99 26 119 121 160 186 181 155 127 144 163 177 170 202 215 185
200 206 211 218 217 222 215 209 205 167 159 118 128 350 64 21 76 171 189 209 196 179 152 185 195 183 204 143 177 173 160 156 175 179 164 257 210 157 105 71 60 142 175 185 208 220 263
195 197 195 206 215 213 199 206 204 186 158 88 102 128 59 337 90 110 187 196 204 179 169 59 159 129 150 114 93 96 145 147 147 155 178 150 119 85 225 122 88 350 209 190 206 212 214
197 200 188 193 210 211 208 204 205 213 168 136 152 140 130 111 327 27 92 98 221 201 136 47 36 121 128 117 102 93 73 76 69 125 146 149 119 58 117 80 145 245 158 190 203 209 215
205 202 196 188 187 208 209 204 198 191 196 186 152 116 107 106 137 124 97 83 120 89 89 81 50 112 149 125 85 81 11 54 353 2 61 160 141 138 200 224 293 289 202 177 171 243 212
181 199 202 195 202 203 203 207 208 211 221 195 171 157 114 120 231 149 135 153 86 84 121 109 106 130 141 93 102 157 169 152 181 12 6 353 201 143 163 164 203 248 184 141 89 265 200
172 168 183 202 196 199 202 199 203 213 223 217 200 180 131 106 139 150 122 172 142 120 92 116 127 96 118 90 140 209 217 153 159 165 159 137 72 199 192 218 274 200 162 143 148 245 203
184 177 187 180 183 202 206 199 195 201 222 221 213 192 177 106 136 166 120 132 129 153 153 167 106 54 83 161 193 178 193 197 130 167 173 161 158 190 102 160 256 144 105 170 214 201 219
208 191 191 188 197 193 192 199 197 191 221 207 153 197 190 150 140 164 160 133 127 133 144 165 107 132 118 121 124 115 116 162 119 203 15 178 192 184 178 212 200 172 142 185 197 253 250
Wind_Speed_850mb
22 21 17 22 22 22 23 22 26 28 48 36 56 54 59 54 59 57 51 50 49 43 39 35 25 42 46 32 22 10 70 62 44 31 19 20 19 24 11 20 26 6 11 9 14 18 16
14 10 13 23 20 16 24 24 26 32 43 59 45 56 58 47 65 53 50 52 47 45 44 36 28 51 31 14 24 8 61 77 67 42 27 25 21 32 14 26 18 19 20 22 16 16 11
12 10 12 10 16 8 16 25 34 34 39 55 48 61 56 54 61 57 49 48 46 46 41 32 35 43 19 14 28 20 45 75 86 67 26 26 34 17 12 2 14 36 13 12 14 16 7
23 23 16 24 19 17 14 21 30 35 35 51 60 65 59 61 60 59 54 52 49 48 48 48 27 20 7 22 33 25 23 61 59 68 34 44 34 33 8 17 8 14 15 11 9 15 6
27 27 22 29 34 25 25 25 25 31 34 49 76 65 69 67 60 59 58 54 49 50 49 51 37 18 9 19 34 36 35 46 47 49 48 32 31 25 7 10 9 14 12 11 9 14 10
16 14 12 17 25 29 19 27 30 28 35 48 82 64 81 74 69 65 59 53 48 49 45 38 17 12 23 32 35 42 37 45 62 63 41 44 23 11 12 17 27 12 13 14 15 14 3
15 12 11 16 19 25 24 31 30 29 28 43 74 72 93 77 80 75 71 69 51 27 61 26 37 18 10 24 35 46 47 44 47 47 34 41 21 32 31 21 14 19 13 16 12 5 9
16 11 11 17 19 12 19 29 32 25 30 51 72 76 92 80 84 82 83 54 61 24 37 24 21 39 25 39 19 38 51 31 39 33 44 20 37 23 21 19 19 11 26 11 11 12 6
20 10 9 15 22 8 16 21 29 22 32 49 73 80 86 89 87 82 92 41 36 57 20 23 25 57 16 33 19 49 58 40 32 35 43 22 20 22 15 10 13 12 21 11 11 9 5
23 13 8 13 20 6 15 19 28 22 22 38 79 76 108 101 91 91 92 39 55 40 12 19 15 27 17 23 7 45 67 26 19 38 33 19 10 18 18 18 16 10 7 18 24 14 8
22 17 15 11 18 3 7 6 15 20 19 48 73 82 101 108 78 101 98 46 62 28 15 23 15 30 19 19 34 32 52 23 26 20 14 11 13 15 18 18 15 5 17 16 9 8 6
12 13 19 16 12 11 14 21 27 18 23 12 68 80 88 91 61 86 75 51 35 6 12 15 17 17 13 19 15 30 20 11 9 11 12 6 4 3 5 10 12 15 20 15 7 6 2
6 6 10 11 7 16 14 19 19 19 24 16 34 101 100 94 69 93 64 48 10 9 23 19 18 27 31 17 16 28 26 10 13 20 14 6 5 4 3 18 7 13 16 6 3 1 9
8 6 6 8 8 11 17 22 30 24 18 16 22 94 102 77 68 79 70 22 10 23 21 15 24 34 23 27 10 29 28 19 17 15 20 11 6 13 7 9 16 16 15 11 11 8 7
15 10 6 5 14 10 14 20 32 12 14 18 31 101 87 68 88 90 57 30 21 38 17 22 30 35 14 24 16 25 33 39 23 25 14 18 5 6 7 7 13 10 10 5 14 4 8
15 10 10 8 6 15 11 18 25 2 9 20 10 67 71 75 97 86 32 32 14 27 27 33 20 25 33 40 17 29 36 29 27 21 7 14 11 3 3 3 6 7 15 7 2 9 7
20 15 10 10 6 14 17 9 19 9 14 28 8 37 56 75 96 63 33 26 13 9 43 25 14 17 22 27 23 28 36 23 33 13 10 3 11 3 5 10 15 5 6 4 9 8 10
21 22 21 11 12 7 15 11 9 16 13 23 11 6 41 73 23 23 27 37 14 12 5 5 6 7 28 35 29 28 25 13 55 27 16 3 11 8 4 3 6 6 9 11 8 6 3
21 17 14 12 10 11 8 8 2 12 13 16 10 8 24 54 24 30 20 36 9 10 9 6 6 3 3 26 14 16 12 4 27 20 22 14 5 9 6 5 5 5 9 7 9 6 10
22 16 15 12 11 12 9 11 12 4 13 8 6 1 8 8 14 28 32 40 27 7 10 5 9 8 7 19 8 16 7 7 8 11 23 19 8 13 16 11 16 15 22 17 14 7 8
22 20 21 16 11 10 10 10 19 15 14 9 5 6 5 5 5 15 32 29 35 14 2 13 4 8 12 10 11 12 8 5 10 7 9 12 14 12 6 9 12 12 19 18 16 31 16
22 22 20 23 15 12 13 12 13 21 23 14 8 3 6 7 7 17 37 18 38 23 17 10 2 14 11 11 12 19 21 10 13 4 14 2 6 12 3 8 9 7 19 31 38 28 17
16 17 18 18 19 13 13 15 15 23 23 7 5 17 6 10 6 4 9 33 18 21 10 14 14 11 10 8 17 14 18 26 19 20 24 14 10 6 6 13 12 8 26 33 23 22 38
23 20 15 12 15 13 15 13 14 13 31 11 18 19 9 5 4 5 6 4 18 3 6 8 10 9 13 40 43 37 37 27 16 10 18 15 12 6 4 5 7 17 22 28 40 28 37
24 22 19 16 11 9 12 16 17 17 22 19 19 9 4 5 7 5 5 5 15 15 6 7 10 11 32 10 8 9 7 7 9 10 5 8 10 8 14 7 16 18 15 20 18 35 22
11 18 24 22 21 13 9 12 16 20 11 34 23 13 7 10 7 12 11 4 3 6 4 4 8 16 11 4 6 10 10 11 11 3 9 7 16 7 8 12 22 45 13 19 15 27 27
11 9 10 19 23 23 14 11 12 17 17 12 28 20 7 10 11 14 4 13 12 7 4 5 8 5 6 4 5 10 13 5 15 23 13 8 1 21 13 7 16 12 15 43 19 19 24
9 10 11 9 15 20 21 15 13 13 17 8 15 26 14 8 11 14 10 9 11 13 4 10 10 2 5 8 12 7 9 12 6 12 16 17 15 9 5 5 30 16 12 32 15 8 7
19 18 11 11 15 16 15 17 17 15 15 21 11 19 33 11 8 11 13 14 15 16 15 18 8 4 7 4 3 5 4 2 3 8 3 11 10 13 20 15 4 30 5 12 4 10 12
Wind_Direction_850mb
253 267 267 278 288 275 259 264 252 242 232 233 200 200 195 199 204 202 202 200 199 194 195 195 195 199 195 194 216 253 211 199 169 166 206 242 244 214 235 187 178 202 122 82 125 134 108
254 250 260 259 283 283 261 263 260 245 234 226 209 198 194 194 198 197 200 198 194 191 192 199 199 187 161 194 208 175 190 192 183 171 184 231 239 203 307 203 181 164 142 134 131 117 104
267 276 249 275 255 304 277 264 258 249 245 227 226 193 194 186 194 196 197 198 195 195 190 186 183 167 171 179 164 187 196 190 192 193 183 238 236 268 261 135 150 140 115 127 142 156 118
266 260 284 252 249 256 298 287 263 255 252 230 217 195 192 187 192 192 194 198 194 193 186 173 154 153 241 172 163 189 186 188 179 189 210 252 254 260 282 144 134 180 138 141 163 147 116
251 264 271 268 245 256 261 301 290 260 268 222 217 201 189 185 190 185 184 187 185 188 182 178 185 151 224 202 205 191 175 173 169 175 214 238 249 227 186 178 165 217 164 162 151 213 127
285 294 291 299 258 256 278 291 302 286 277 231 212 213 185 182 183 180 175 175 174 168 165 165 190 213 205 211 200 204 202 182 178 183 197 228 219 213 200 206 195 168 173 185 148 186 187
277 294 304 320 284 265 275 283 304 295 277 231 209 215 182 179 177 175 168 157 141 166 172 163 181 216 210 189 195 197 186 176 161 171 198 197 207 209 199 204 232 163 208 145 105 71 154
260 292 322 340 328 262 268 285 292 296 264 207 203 207 184 176 177 176 175 168 161 184 172 182 183 184 140 163 167 184 170 159 188 181 187 175 220 203 196 199 237 258 184 151 50 112 113
251 276 330 343 344 265 293 297 312 302 274 199 200 196 193 175 176 177 179 164 155 153 150 217 229 200 184 169 183 172 176 195 185 188 198 188 189 200 174 166 174 243 175 145 136 129 263
240 260 296 342 353 252 292 317 315 306 272 215 204 200 185 174 173 177 181 170 177 165 146 163 188 181 201 164 168 183 183 203 186 198 199 200 207 182 157 182 178 164 67 128 125 144 198
237 260 279 310 347 242 246 314 333 314 302 206 190 192 177 176 172 180 176 185 174 195 169 146 155 157 187 190 144 183 187 215 198 166 161 181 159 167 172 184 182 154 116 120 134 145 122
233 267 262 263 318 299 262 280 296 320 305 192 195 196 174 178 178 179 171 188 176 217 201 154 145 152 152 207 189 153 176 210 171 121 59 83 299 155 126 55 113 139 97 82 77 113 312
219 310 308 247 300 351 267 299 318 326 284 85 176 177 180 172 172 171 179 155 168 188 141 166 175 162 171 168 154 173 178 191 157 148 160 121 70 24 147 85 123 146 139 118 130 198 210
267 252 279 288 281 330 351 353 306 305 267 7 116 178 175 167 174 166 170 175 189 184 179 148 155 156 176 153 185 185 175 180 223 190 155 154 188 174 184 171 172 189 169 145 168 171 197
265 267 240 214 260 282 316 339 345 251 283 332 146 169 167 166 168 172 166 184 204 169 154 142 137 156 152 180 133 177 186 196 200 209 155 172 86 50 37 5 138 210 220 101 104 35 79
242 261 229 223 280 288 275 325 355 259 317 308 59 150 157 168 169 174 188 192 201 165 122 143 163 169 174 180 161 184 183 204 202 205 70 161 108 332 307 314 77 178 145 86 29 126 214
230 245 255 217 243 292 226 306 351 1 337 327 33 141 155 164 171 179 197 188 156 116 141 171 144 175 169 175 182 185 185 175 195 160 114 63 108 174 158 215 162 146 175 199 150 148 164
231 242 256 248 223 255 295 237 336 5 357 338 358 118 165 161 165 195 199 183 151 145 90 223 117 138 178 175 183 189 185 184 186 144 148 59 106 137 179 43 7 15 178 169 147 220 83
226 226 242 247 233 226 257 243 194 21 102 354 14 68 158 166 180 189 182 193 131 144 162 156 98 109 188 168 167 174 145 269 163 158 161 184 125 98 23 346 28 215 173 218 111 87 193
227 221 230 244 239 222 217 258 165 107 124 121 1 114 55 75 216 179 180 194 182 100 154 139 108 103 127 154 51 167 115 18 29 134 172 135 145 151 182 193 134 187 194 191 173 139 180
217 218 219 222 230 218 210 212 179 155 132 98 14 73 22 151 122 185 191 193 187 161 268 154 109 190 156 137 141 158 113 99 26 119 121 160 186 181 155 127 144 163 177 170 202 215 185
200 206 211 218 217 222 215 209 205 167 159 118 128 350 64 21 76 171 189 209 196 179 152 185 195 183 204 143 177 173 160 156 175 179 164 257 210 157 105 71 60 142 175 185 208 220 263
195 197 195 206 215 213 199 206 204 186 158 88 102 128 59 337 90 110 187 196 204 179 169 59 159 129 150 114 93 96 145 147 147 155 178 150 119 85 225 122 88 350 209 190 206 212 214
197 200 188 193 210 211 208 204 205 213 168 136 152 140 130 111 327 27 92 98 221 201 136 47 36 121 128 117 102 93 73 76 69 125 146 149 119 58 117 80 145 245 158 190 203 209 215
205 202 196 188 187 208 209 204 198 191 196 186 152 116 107 106 137 124 97 83 120 89 89 81 50 112 149 125 85 81 11 54 353 2 61 160 141 138 200 224 293 289 202 177 171 243 212
181 199 202 195 202 203 203 207 208 211 221 195 171 157 114 120 231 149 135 153 86 84 121 109 106 130 141 93 102 157 169 152 181 12 6 353 201 143 163 164 203 248 184 141 89 265 200
172 168 183 202 196 199 202 199 203 213 223 217 200 180 131 106 139 150 122 172 142 120 92 116 127 96 118 90 140 209 217 153 159 165 159 137 72 199 192 218 274 200 162 143 148 245 203
184 177 187 180 183 202 206 199 195 201 222 221 213 192 177 106 136 166 120 132 129 153 153 167 106 54 83 161 193 178 193 197 130 167 173 161 158 190 102 160 256 144 105 170 214 201 219
208 191 191 188 197 193 192 199 197 191 221 207 153 197 190 150 140 164 160 133 127 133 144 165 107 132 118 121 124 115 116 162 119 203 15 178 192 184 178 212 200 172 142 185 197 253 250